Wind_Speed
51 46 44 44 35 35 36 28 29 21 20 21 23 38 44 41 37 37 43 42 36 37 36 35 36 37 34 33 32 33 35 34 31 30 30 35 38 42 43 44 47 46 48 46 53
56 47 48 45 40 39 38 29 30 28 22 24 23 31 44 46 42 39 37 37 40 40 38 37 37 37 38 37 36 36 37 36 33 31 32 32 34 37 40 42 43 46 49 50 54
58 53 51 46 43 40 34 30 33 31 29 26 27 25 43 49 46 44 40 36 37 39 43 41 40 40 40 40 39 38 40 39 39 37 36 35 35 38 44 44 44 46 50 52 56
64 60 57 53 47 45 44 30 37 35 28 27 27 30 27 54 52 48 45 41 41 37 40 40 45 45 43 41 40 41 44 41 44 42 40 38 39 43 47 48 47 46 47 51 54
71 69 63 56 51 52 50 49 39 36 32 28 27 27 26 34 53 48 48 45 40 37 35 35 37 44 47 47 45 46 45 45 46 48 43 43 43 45 47 47 46 50 56 58 58
78 74 66 62 56 58 54 44 40 41 35 31 28 27 27 30 33 47 47 50 49 46 42 38 35 42 49 49 49 49 51 49 49 50 49 49 48 49 50 52 54 56 58 57 59
77 76 67 65 61 60 58 54 36 40 40 35 32 27 31 25 31 46 44 42 46 46 43 44 45 47 50 51 50 51 53 54 51 50 50 51 51 51 51 51 54 56 59 58 58
78 77 76 72 67 64 61 54 48 41 43 40 39 32 30 25 28 39 42 42 47 45 45 45 50 53 55 53 53 52 53 54 51 50 51 52 50 50 52 52 52 55 57 60 64
84 80 79 77 73 68 64 58 54 48 43 45 40 36 31 28 30 27 26 36 55 52 51 54 53 54 56 54 53 53 55 52 51 53 53 54 53 55 55 55 57 59 59 63 67
85 86 81 80 75 71 70 64 57 53 47 50 44 37 36 33 30 28 24 26 31 38 47 57 61 62 61 58 57 59 61 56 54 53 52 51 51 53 53 54 55 58 60 62 64
89 87 84 82 75 71 70 64 58 50 55 55 47 45 37 33 31 27 26 28 27 28 33 42 52 58 64 65 65 64 58 54 52 51 48 46 47 48 48 51 53 58 60 63 66
93 90 88 84 79 71 70 68 58 56 58 54 50 43 40 35 31 24 27 29 28 27 31 38 41 42 44 45 47 47 43 44 44 45 44 43 41 43 45 47 51 56 60 65 69
92 93 92 86 81 75 75 72 67 58 56 52 52 46 41 37 31 26 29 29 27 27 26 27 26 31 33 36 38 38 38 38 39 39 38 37 39 44 50 54 57 62 66 67 68
94 93 93 91 86 79 78 77 71 62 56 56 53 46 45 40 32 26 31 28 30 26 24 22 17 20 20 25 28 32 31 34 36 40 40 42 43 51 55 58 60 62 62 60 60
97 91 94 92 90 85 83 81 75 68 60 55 49 49 44 43 37 31 32 26 30 21 20 21 24 28 28 29 34 35 35 36 36 39 40 44 45 48 51 51 52 52 55 57 58
97 94 93 90 91 87 83 82 78 76 66 54 53 51 48 44 40 34 34 29 21 21 17 11 19 24 23 22 25 29 31 35 37 37 37 38 40 43 45 47 49 52 55 58 60
96 94 92 91 87 87 86 82 79 72 68 63 58 54 51 46 42 34 34 28 24 21 17 16 18 18 19 19 20 23 23 24 28 29 33 37 41 43 44 47 49 52 54 54 56
96 94 94 94 88 85 84 80 74 73 70 67 61 56 51 46 45 39 33 29 26 23 18 18 15 13 14 16 17 19 21 23 26 28 31 33 34 36 39 41 45 48 51 55 58
97 94 94 96 94 88 85 77 77 77 70 65 59 54 54 47 42 39 33 28 26 28 24 21 16 14 13 14 16 18 21 23 24 27 29 30 32 33 35 39 44 49 52 56 59
100 97 98 94 93 91 87 78 82 79 73 63 57 55 56 51 44 43 34 27 27 32 29 23 20 20 17 18 18 19 22 23 26 29 31 30 32 35 39 43 48 53 57 58 60
106 103 99 94 94 87 81 81 84 80 73 66 61 56 56 53 45 42 37 31 30 31 28 27 27 25 24 21 20 22 25 26 28 31 32 34 36 39 43 48 52 57 59 60 61
110 108 97 95 90 87 79 81 82 80 73 69 63 59 54 53 52 44 42 40 36 33 30 27 28 32 31 27 25 26 28 28 30 33 35 38 41 44 48 51 55 60 62 61 62
112 109 100 95 88 83 82 81 79 77 73 70 64 59 53 54 55 49 43 40 34 32 30 28 27 29 33 33 30 30 29 30 33 36 38 42 45 47 50 55 58 61 63 63 62
119 110 101 94 89 85 83 83 77 76 75 71 66 60 56 56 58 51 42 41 34 32 31 26 26 29 31 34 34 33 31 33 35 37 40 43 46 48 52 55 59 62 64 63 62
120 107 98 88 87 86 82 81 78 75 73 69 66 61 59 58 57 54 48 41 40 35 30 26 25 26 29 31 31 32 30 34 36 39 42 44 45 49 52 55 60 63 65 63 63
117 107 99 91 90 86 82 80 77 74 71 69 66 63 60 61 63 60 53 47 41 38 32 28 27 26 26 27 30 32 33 36 38 42 43 45 46 50 53 56 61 64 64 63 63
115 106 99 94 89 86 79 77 78 76 73 70 68 65 62 63 59 52 47 44 39 35 33 30 29 28 28 27 31 35 38 40 40 42 44 46 48 50 52 57 62 64 62 63 65
Wind_Direction
234 237 234 233 239 242 246 234 246 245 252 255 253 232 228 231 234 233 235 232 236 235 238 244 243 246 248 250 255 258 259 263 267 269 272 271 271 273 278 282 284 286 287 287 285
229 231 229 231 234 247 237 234 241 247 245 253 252 249 231 231 229 232 235 237 238 238 238 244 248 248 251 251 253 256 261 266 266 271 273 277 281 282 283 282 284 285 285 285 285
230 229 225 228 227 233 229 237 235 245 243 252 255 259 239 231 231 229 233 238 241 242 242 246 250 251 251 253 257 261 264 268 268 269 268 269 277 279 278 283 289 291 289 287 287
231 229 228 232 225 234 233 236 236 237 238 249 254 259 259 231 232 232 235 239 243 246 248 248 251 253 256 257 260 265 264 269 272 270 273 274 278 281 287 292 293 294 291 287 287
232 230 230 233 233 227 233 234 233 231 240 241 250 258 267 243 231 237 236 237 241 244 248 250 256 260 256 256 259 263 266 268 273 275 277 277 281 285 288 290 289 287 287 292 294
230 231 229 229 225 223 222 234 232 229 233 234 243 252 257 256 237 237 238 240 241 242 247 248 255 262 260 261 260 262 262 266 271 278 284 282 281 283 284 288 291 289 292 296 294
227 225 221 225 221 222 226 227 231 237 230 241 241 244 248 261 244 235 239 245 246 250 253 257 259 259 261 262 265 266 265 266 270 275 279 283 285 285 286 285 287 290 293 294 291
223 224 224 222 219 218 226 227 227 236 231 232 244 239 250 254 248 243 248 246 248 253 256 257 259 263 265 264 267 269 271 270 272 276 280 282 285 287 287 288 289 291 291 291 292
222 223 221 221 220 220 224 223 225 231 242 233 241 235 247 244 244 248 254 252 245 245 249 258 258 260 260 262 268 272 275 272 275 275 278 281 285 286 288 290 291 291 291 291 293
218 222 222 221 220 220 221 223 227 226 235 231 232 237 242 243 242 247 255 254 258 253 253 256 257 255 256 264 270 272 274 277 279 278 279 280 281 283 286 288 289 290 291 290 294
219 219 220 220 218 217 219 224 223 225 229 225 232 237 236 241 239 248 256 257 267 265 260 259 257 258 260 265 270 273 276 277 279 279 281 281 281 283 284 286 288 289 290 292 294
218 219 221 219 218 219 218 222 217 226 226 224 226 232 239 234 236 248 259 255 263 274 265 262 263 266 263 265 270 272 276 280 281 283 285 285 284 286 289 291 289 291 292 293 296
216 215 218 219 220 220 218 218 220 219 221 220 224 224 236 227 233 247 258 258 257 277 274 271 274 269 266 264 266 276 280 281 281 283 287 287 289 288 288 288 292 294 295 297 299
214 215 215 220 221 220 218 216 218 214 217 217 224 221 228 234 248 248 257 255 256 271 280 283 276 276 277 273 276 276 284 283 283 280 284 287 286 288 289 291 293 294 298 299 301
214 212 214 218 218 218 217 217 218 215 217 217 222 223 224 235 241 246 253 253 263 272 275 296 275 274 273 276 273 280 281 281 283 284 287 288 290 289 292 296 299 301 300 302 303
213 211 212 214 218 215 217 216 218 216 221 219 222 223 226 231 239 236 244 248 262 253 276 283 268 267 277 279 277 280 281 281 285 292 293 295 296 297 301 301 301 301 302 304 305
209 211 211 211 212 214 215 215 217 218 220 222 222 221 226 228 236 237 242 252 255 253 258 266 271 281 283 284 282 285 293 296 297 300 298 298 302 303 302 303 303 305 309 311 312
206 208 211 210 210 213 213 213 216 219 221 221 221 222 226 226 236 236 238 249 250 245 249 259 274 284 285 286 294 302 303 304 308 307 306 309 311 313 314 313 318 320 319 317 314
204 205 209 211 211 214 214 212 214 217 217 217 219 220 225 226 235 234 234 244 245 245 250 255 265 271 277 291 303 312 307 310 314 315 320 325 324 323 326 328 328 329 325 322 320
202 205 207 209 209 211 213 211 213 215 216 216 216 220 223 223 227 232 230 239 254 251 251 256 255 267 275 281 295 302 305 311 314 319 324 326 328 329 332 330 329 330 331 328 325
201 203 205 208 206 207 207 209 211 213 216 215 216 219 222 224 221 231 229 240 256 253 251 258 259 260 268 276 287 295 301 310 312 315 318 321 325 326 327 330 332 332 331 328 327
200 202 202 205 205 204 203 208 211 213 215 215 215 218 220 222 225 228 231 241 246 248 252 254 263 264 266 275 284 298 307 310 311 311 314 316 321 323 325 326 328 331 331 328 327
200 200 201 203 203 200 199 206 209 211 213 212 214 216 218 221 225 224 232 236 240 243 247 252 260 267 271 275 282 297 300 303 306 311 314 316 317 317 320 324 327 330 331 329 327
199 198 198 199 201 199 199 204 205 208 211 212 214 216 219 222 227 224 225 237 238 240 245 255 264 266 270 275 281 291 297 300 305 310 315 317 318 320 320 323 327 330 330 329 329
197 195 196 196 199 202 200 201 204 207 209 212 214 215 218 223 227 229 227 235 237 239 246 257 263 266 273 278 281 287 293 297 304 309 311 314 317 319 321 323 326 328 330 331 331
195 193 193 195 197 200 203 201 204 206 208 209 212 215 218 222 224 226 227 232 240 239 243 252 255 265 272 276 283 289 294 299 303 308 309 311 317 319 322 324 326 328 331 330 331
193 191 192 195 197 199 199 201 201 205 206 207 209 213 217 222 227 230 228 227 233 238 242 249 256 268 276 284 285 289 294 298 303 309 311 313 316 321 323 324 327 329 329 331 332
Height
10748 10754 10760 10765 10769 10774 10778 10781 10784 10784 10786 10787 10787 10789 10792 10795 10798 10803 10805 10811 10814 10817 10820 10822 10824 10825 10827 10829 10831 10832 10832 10834 10837 10838 10842 10840 10838 10835 10832 10829 10825 10823 10819 10818 10812
10737 10744 10750 10756 10761 10766 10771 10775 10778 10780 10782 10783 10784 10785 10787 10789 10793 10797 10800 10805 10808 10812 10815 10817 10819 10821 10822 10824 10826 10827 10827 10829 10832 10834 10835 10835 10833 10831 10827 10822 10820 10817 10812 10809 10804
10725 10734 10740 10746 10753 10758 10764 10768 10771 10774 10776 10778 10779 10781 10781 10783 10788 10793 10796 10800 10802 10805 10809 10812 10813 10815 10817 10819 10821 10823 10822 10824 10825 10828 10829 10831 10829 10825 10818 10817 10816 10813 10807 10802 10796
10712 10720 10729 10737 10743 10750 10756 10761 10764 10768 10770 10773 10774 10775 10775 10777 10782 10787 10790 10794 10797 10801 10803 10806 10808 10810 10812 10815 10817 10816 10816 10818 10816 10821 10824 10826 10824 10819 10815 10812 10810 10805 10799 10794 10787
10698 10707 10717 10726 10733 10741 10748 10754 10758 10761 10765 10768 10769 10769 10770 10770 10777 10780 10785 10789 10792 10796 10799 10801 10804 10804 10806 10807 10811 10808 10811 10813 10812 10812 10819 10818 10816 10812 10808 10804 10799 10793 10787 10784 10777
10685 10693 10704 10714 10723 10730 10737 10745 10750 10755 10759 10762 10764 10765 10766 10765 10772 10772 10778 10783 10785 10790 10794 10797 10798 10797 10797 10800 10801 10803 10804 10808 10809 10809 10809 10808 10807 10804 10799 10795 10789 10782 10778 10776 10767
10670 10680 10691 10701 10711 10719 10727 10736 10743 10747 10752 10757 10758 10760 10761 10764 10765 10767 10772 10778 10781 10784 10790 10792 10792 10790 10789 10791 10793 10795 10798 10801 10805 10805 10801 10797 10797 10795 10792 10786 10779 10775 10770 10764 10755
10654 10666 10676 10689 10699 10708 10716 10726 10734 10740 10746 10749 10752 10754 10756 10760 10761 10764 10768 10773 10774 10779 10783 10784 10783 10782 10780 10782 10785 10788 10791 10795 10797 10797 10794 10791 10787 10785 10781 10776 10772 10767 10760 10749 10744
10638 10651 10663 10675 10687 10697 10706 10716 10725 10732 10737 10742 10745 10748 10753 10756 10758 10761 10764 10767 10769 10773 10775 10776 10775 10773 10772 10775 10779 10782 10781 10787 10789 10788 10786 10783 10780 10775 10770 10766 10762 10754 10748 10739 10732
10620 10635 10649 10661 10673 10686 10696 10706 10715 10723 10728 10734 10738 10743 10747 10750 10753 10756 10760 10761 10762 10765 10765 10765 10765 10763 10766 10770 10772 10772 10771 10778 10779 10780 10778 10775 10772 10767 10762 10758 10753 10744 10737 10730 10726
10603 10618 10634 10646 10660 10673 10686 10696 10705 10712 10716 10724 10730 10737 10740 10745 10749 10752 10755 10756 10757 10758 10758 10757 10753 10757 10764 10764 10763 10763 10765 10766 10770 10768 10768 10768 10764 10760 10755 10749 10744 10736 10728 10722 10717
10585 10604 10619 10632 10646 10662 10674 10686 10693 10700 10707 10718 10725 10731 10735 10740 10743 10746 10751 10750 10752 10752 10751 10749 10750 10754 10754 10755 10756 10754 10756 10759 10760 10758 10758 10758 10755 10750 10745 10739 10733 10727 10721 10713 10709
10569 10587 10604 10617 10634 10651 10663 10672 10680 10689 10699 10709 10717 10725 10730 10734 10738 10740 10745 10745 10746 10748 10746 10745 10746 10747 10749 10749 10749 10749 10751 10751 10751 10751 10750 10749 10747 10741 10735 10730 10725 10718 10711 10706 10701
10554 10571 10587 10603 10621 10637 10649 10657 10667 10679 10690 10700 10706 10719 10723 10730 10733 10736 10740 10740 10742 10744 10743 10742 10742 10742 10744 10743 10744 10744 10746 10745 10745 10744 10743 10740 10740 10733 10727 10722 10717 10710 10704 10697 10692
10535 10555 10571 10589 10605 10621 10631 10643 10656 10668 10682 10694 10704 10710 10718 10723 10727 10731 10734 10735 10738 10740 10739 10737 10739 10739 10738 10739 10738 10739 10740 10739 10738 10737 10736 10732 10731 10725 10720 10714 10707 10702 10694 10688 10681
10516 10538 10556 10573 10588 10606 10616 10633 10645 10660 10674 10687 10695 10702 10710 10717 10721 10725 10728 10731 10734 10734 10736 10736 10734 10733 10734 10735 10733 10732 10733 10732 10731 10731 10729 10725 10721 10717 10712 10706 10700 10692 10685 10678 10670
10501 10521 10541 10557 10575 10588 10603 10621 10636 10658 10664 10676 10685 10693 10702 10711 10715 10719 10724 10726 10729 10730 10732 10732 10731 10730 10729 10731 10730 10728 10727 10728 10726 10725 10722 10718 10715 10710 10705 10698 10690 10684 10677 10668 10659
10486 10506 10525 10540 10559 10574 10594 10613 10635 10643 10652 10666 10677 10688 10696 10704 10710 10714 10718 10720 10723 10725 10728 10729 10728 10727 10726 10726 10726 10725 10725 10723 10721 10718 10716 10713 10709 10703 10697 10690 10683 10675 10667 10658 10648
10474 10492 10507 10526 10545 10563 10584 10610 10625 10628 10644 10657 10671 10682 10689 10698 10705 10709 10712 10715 10717 10721 10724 10725 10725 10724 10722 10721 10722 10721 10719 10717 10715 10712 10710 10707 10702 10696 10690 10683 10675 10667 10659 10649 10638
10459 10476 10486 10513 10533 10554 10579 10601 10607 10619 10635 10652 10664 10671 10679 10689 10697 10702 10706 10708 10712 10716 10719 10721 10721 10720 10718 10717 10717 10717 10715 10713 10711 10706 10703 10701 10696 10690 10683 10676 10668 10659 10649 10639 10628
10437 10454 10477 10497 10521 10546 10574 10587 10593 10613 10629 10643 10652 10661 10671 10682 10690 10696 10699 10703 10707 10710 10713 10716 10717 10716 10715 10715 10714 10713 10711 10709 10706 10703 10699 10695 10690 10683 10676 10668 10660 10651 10642 10631 10620
10421 10437 10471 10490 10517 10545 10560 10567 10584 10604 10620 10633 10644 10653 10664 10674 10683 10688 10693 10697 10701 10705 10708 10710 10712 10711 10711 10711 10709 10708 10706 10704 10702 10698 10695 10690 10683 10676 10670 10663 10655 10645 10634 10622 10611
10410 10429 10457 10484 10513 10534 10543 10557 10578 10596 10610 10624 10635 10646 10657 10666 10673 10681 10688 10692 10696 10699 10702 10705 10706 10706 10705 10705 10705 10704 10703 10701 10698 10695 10691 10685 10679 10673 10665 10657 10649 10638 10626 10614 10602
10386 10420 10448 10480 10504 10517 10530 10548 10570 10585 10600 10614 10628 10640 10650 10657 10663 10673 10681 10687 10691 10694 10696 10700 10701 10700 10699 10699 10699 10699 10699 10696 10693 10690 10685 10680 10672 10666 10659 10651 10641 10629 10618 10606 10594
10379 10421 10452 10479 10496 10507 10522 10545 10560 10577 10593 10609 10621 10633 10640 10648 10656 10666 10674 10681 10685 10689 10691 10694 10695 10695 10694 10694 10692 10692 10693 10691 10688 10685 10680 10673 10667 10660 10652 10644 10634 10622 10610 10598 10586
10386 10417 10445 10465 10475 10493 10515 10539 10558 10570 10588 10603 10614 10624 10632 10637 10641 10651 10666 10674 10680 10684 10687 10689 10690 10690 10689 10689 10688 10688 10687 10686 10683 10679 10673 10667 10661 10653 10645 10636 10626 10614 10602 10591 10580
10381 10415 10437 10452 10471 10491 10513 10533 10547 10563 10579 10591 10603 10613 10620 10626 10638 10654 10663 10667 10674 10678 10681 10684 10685 10685 10686 10685 10684 10684 10682 10680 10677 10673 10667 10661 10655 10647 10638 10628 10618 10607 10596 10585 10573